Zurück zum Katalog

MOLNIYA 1-S

AktivKommunikationGEO
NORAD 7392·PAYLOAD·🇷🇺 Russia

Gestartet Jul 29, 1974 von Baikonur Cosmodrome

Loading…

TLE

AktuellSource: Space-Track

Epoche: Sep 14, 2026, 14:17 UTC

1 07392U 74060A   26257.59572777 -.00000330  00000-0  00000-0 0  9996
2 07392   1.1653 245.5055 0009102 293.0651 133.5278  1.00239274135076

Verfolge MOLNIYA 1-S in Echtzeit mit AllMySat

Download on the App Store